Flag for Ukraine Weather past 2 weeks in Odesa, Ukraine

Now
84 °F

Passing clouds.


Feels Like: 82 °F
Forecast: 72 / 93 °F
Wind: 3 mph from Northeast

Location: Odesa Airport

Current Time: Aug 4, 2015 at 11:06:06 PM

Latest Report: Aug 4, 2015 at 10:30 PM


Visibility: N/A

Pressure: 29.95 "Hg

Humidity: 33%

Dew point: 52 °F

Location of OdesaLocation

Historic Weather in Odesa — Graph

°F

Odesa temperature yesterday

Maximum temperature yesterday: 91 °F (at 5:30 PM)
Minimum temperature yesterday: 68 °F (at 5:30 AM)
Average temperature yesterday: 80 °F

Past Weeks' High & Low Weather Summary

 TemperatureHumidityPressure
High95 °F (Jul 25, 4:00 PM)100% (Jul 22, 6:00 AM)30.21 "Hg (Jul 22, 6:00 AM)
Low59 °F (Aug 2, 4:30 AM)22% (Aug 3, 4:30 PM)29.62 "Hg (Jul 26, 3:30 PM)
Average78 °F58%29.89 "Hg
* Reported Jul 20 10:00 PM — Aug 4 10:00 PM, Odesa, Weather by CustomWeather, © 2015

Note: Actual official high and low records may vary slightly from our data, if they occured in-between our weather recording intervals... More about our weather records

Advertising

Odesa weather history for previous 24 hours

 ConditionsComfort  
Time TempWeatherWind HumidityBarometerVisibility
10:00 PM
Tue, Aug 4
86 °FPassing clouds.6 mph31%29.92 "HgN/A
9:30 PM86 °FPassing clouds.6 mph29%29.92 "HgN/A
9:00 PM88 °FSunny.10 mph29%29.92 "Hg10 mi
8:30 PM86 °FSunny.6 mph31%29.92 "Hg10 mi
8:00 PM88 °FSunny.8 mph29%29.92 "Hg10 mi
7:30 PM90 °FSunny.6 mph27%29.92 "Hg10 mi
7:00 PM91 °FSunny.8 mph26%29.92 "Hg10 mi
6:30 PM91 °FPassing clouds.10 mph26%29.92 "HgN/A
6:00 PM93 °FPassing clouds.10 mph23%29.92 "HgN/A
5:30 PM93 °FSunny.10 mph23%29.92 "Hg10 mi
5:00 PM93 °FPassing clouds.10 mph23%29.92 "HgN/A
4:30 PM93 °FSunny.13 mph23%29.92 "Hg10 mi
4:00 PM93 °FPassing clouds.10 mph23%29.92 "HgN/A
3:30 PM93 °FSunny.13 mph23%29.95 "Hg10 mi
3:00 PM93 °FSunny.10 mph23%29.95 "Hg10 mi
2:30 PM91 °FPassing clouds.10 mph23%29.95 "HgN/A
2:00 PM93 °FSunny.13 mph23%29.95 "Hg10 mi
1:30 PM91 °FPassing clouds.15 mph23%29.95 "HgN/A
1:00 PM91 °FPassing clouds.13 mph24%29.98 "HgN/A
12:30 PM90 °FPassing clouds.13 mph26%29.98 "HgN/A
12:00 PM90 °FPassing clouds.13 mph26%29.98 "HgN/A
11:30 AM88 °FPassing clouds.10 mph29%29.98 "HgN/A
11:00 AM86 °FSunny.13 mph29%29.98 "Hg10 mi
10:30 AM84 °FSunny.13 mph31%29.98 "Hg10 mi
10:00 AM82 °FSunny.10 mph35%30.01 "Hg10 mi
9:30 AM81 °FSunny.10 mph37%30.01 "Hg10 mi
9:00 AM79 °FPassing clouds.10 mph39%30.01 "HgN/A
8:30 AM77 °FSunny.10 mph44%30.01 "Hg10 mi
8:00 AM75 °FSunny.10 mph47%30.01 "Hg10 mi
7:30 AM73 °FSunny.8 mph50%30.01 "Hg10 mi
7:00 AM72 °FSunny.8 mph53%30.01 "Hg10 mi
6:30 AM72 °FClear.8 mph53%30.01 "Hg10 mi
6:00 AM72 °FClear.6 mph53%30.01 "Hg10 mi
5:30 AM73 °FClear.8 mph50%30.01 "Hg10 mi
5:00 AM73 °FClear.8 mph50%30.01 "Hg10 mi
4:30 AM75 °FClear.8 mph47%30.01 "Hg10 mi
4:00 AM75 °FClear.8 mph50%30.01 "Hg10 mi
3:30 AM77 °FPassing clouds.10 mph44%30.01 "HgN/A
3:00 AM77 °FClear.10 mph47%30.01 "Hg10 mi
2:30 AM77 °FClear.10 mph47%30.04 "Hg10 mi
2:00 AM77 °FPassing clouds.6 mph44%30.04 "HgN/A
1:30 AM77 °FPassing clouds.3 mph44%30.04 "HgN/A
1:00 AM79 °FPassing clouds.3 mph42%30.04 "HgN/A
12:30 AM79 °FPassing clouds.6 mph39%30.04 "HgN/A
12:00 AM81 °FPassing clouds.6 mph37%30.04 "HgN/A
11:30 PM
Mon, Aug 3
82 °FClear.8 mph32%30.04 "Hg10 mi
11:00 PM82 °FClear.10 mph35%30.04 "Hg10 mi
Weather by CustomWeather, © 2015

See weather overviewHow to use our weather pages